STARLINK-4086, 52833

Orbit data source: Space-Track

STARLINK-4086, 52833 is a payload satellite owned by SpaceX/Seattle (US) in LEO that was launched on Fri, 17 Jun 2022 UTC via an FALCON 9 launch vehicle from the Air Force Eastern Test Range (AFETR). Payload-class satellites include a variety of spacecraft equipped with specific instruments for various scientific and technological missions. These include communications satellites like Starlink; space stations such as the ISS; scientific satellites like the Hubble; Earth observation satellites from companies like Planet Labs, Umbra, and HawkEye 360; GPS; miniature CubeSats for education and research; and military/defense satellites.

Loading next visibility...
Identifier
52833, 2022-062D
Orbit
LEO
Country
Flag of USUS
Related business
Manufacturer
SpaceX/Seattle
Mission
Operational Commercial Communications
Bus & Motor
STARLINK, Unknown motor
Mass
297 kg wet, ~275 kg dry
Launch date (UTC)
2022-06-17 (4 years ago)
Launch vehicle
FALCON 9
Launch site
Air Force Eastern Test Range (AFETR)
Object type
Payload
Rocket body
Debris
Shape & HBR
Box + 1 Pan, 10.1 m
Radar Cross Section
13.562 m², Large (>1 m²)

Expand to show TLE details & history
Last TLE update: 1 day ago

TLE from 1 day ago
0 STARLINK-4086
1 52833U 22062D   25349.57737890  .00001013  00000-0  81684-4 0  9998
2 52833  53.2185  51.7178 0001398  81.3680 278.7471 15.08846843193087
Epoch: 2025-12-15T13:51Z
TLE epoch observation values (Epoch: 2025-12-15T13:51:25.536Z)
Latitude
-0.00001°
Longitude
119.38745°
Altitude
540.473 km
Speed
7.593 km/s
True Right ascension
03h 26m 52s
True Declination
0° 00' 00"
Sunlit
Object was in full shadow at epoch
Visualization orbit readout
Latitude
Unknown
Longitude
Unknown
Altitude
Unknown
Speed
Unknown
Apparent Right ascension
Unknown
Apparent Declination
Unknown
Sunlit
N/A
Visualization observer readout
Local Sidereal Time
13:40:31
Azimuth
Unknown
Elevation
Unknown
Doppler factor
Unknown
Orbital elements
Apogee altitude
540.934 km
Perigee altitude
539 km
Semi-major axis
6,918.104 km
Eccentricity
0.00014
Inclination
53.2185°
RAAN
51.7178°
Arg. of periapsis
81.368°
True anomaly
278.73127°
Mean anomaly
278.7471°
Eccentric anomaly
278.73918°
Mean motion
3.77192 °/min
Orbital period
95.44 mins
BSTAR
0.000081684
Loading maneuver chart data...
Computing Atmospheric mass density...
Loading historical data...
Loading historical data...
Loading historical data...
Loading historical data...
Loading historical data...
Loading historical data...
Loading historical data...

Documentation

Showing up to 5 results
|